�������l�o���
Date,Time,MP-1(��Sv/h),MP-2(��Sv/h),MP-3(��Sv/h),MP-4(��Sv/h),MP-5(��Sv/h),MP-6(��Sv/h),MP-7(��Sv/h),MP-8(��Sv/h),����,����(m/s),���J
2021/04/30,00:00,0.597,0.871,0.563,1.078,0.741,0.363,0.628,0.590,-,CALM,�L
2021/04/30,00:10,0.593,0.864,0.559,1.071,0.737,0.360,0.626,0.588,��,6.8,�L
2021/04/30,00:20,0.594,0.865,0.560,1.069,0.736,0.359,0.628,0.588,��,6.7,�L
2021/04/30,00:30,0.592,0.867,0.559,1.069,0.736,0.360,0.625,0.587,��,6.7,�L
2021/04/30,00:40,0.592,0.861,0.559,1.064,0.733,0.359,0.624,0.586,��,4.9,�L
2021/04/30,00:50,0.585,0.857,0.552,1.060,0.728,0.358,0.623,0.584,��쓌,9.0,�L
2021/04/30,01:00,0.584,0.851,0.555,1.052,0.724,0.355,0.620,0.582,�쓌,9.1,�L
2021/04/30,01:10,0.580,0.848,0.553,1.048,0.717,0.354,0.618,0.580,���k��,3.0,�L
2021/04/30,01:20,0.578,0.846,0.551,1.042,0.714,0.354,0.619,0.577,�k�k��,5.8,�L
2021/04/30,01:30,0.578,0.844,0.553,1.037,0.710,0.352,0.617,0.577,��,3.0,�L
2021/04/30,01:40,0.574,0.837,0.547,1.029,0.703,0.351,0.614,0.575,�k,5.4,�L
2021/04/30,01:50,0.576,0.841,0.549,1.031,0.701,0.353,0.617,0.573,�k�k��,6.5,�L
2021/04/30,02:00,0.582,0.851,0.554,1.038,0.706,0.356,0.619,0.578,�k��,7.3,�L
2021/04/30,02:10,0.586,0.856,0.555,1.047,0.709,0.359,0.620,0.580,�k��,7.8,�L
2021/04/30,02:20,0.588,0.860,0.558,1.050,0.712,0.361,0.621,0.583,�k��,7.9,�L
2021/04/30,02:30,0.591,0.861,0.557,1.053,0.712,0.360,0.622,0.585,�k��,9.2,�L
2021/04/30,02:40,0.593,0.863,0.556,1.054,0.714,0.361,0.624,0.587,�k��,6.5,�L
2021/04/30,02:50,0.594,0.868,0.559,1.059,0.715,0.361,0.623,0.588,�k��,8.2,��
2021/04/30,03:00,0.596,0.869,0.560,1.065,0.718,0.363,0.626,0.589,�k��,9.2,��
2021/04/30,03:10,0.596,0.868,0.560,1.064,0.718,0.363,0.625,0.589,�k��,7.0,��
2021/04/30,03:20,0.598,0.872,0.560,1.066,0.719,0.363,0.625,0.590,�k��,7.9,��
2021/04/30,03:30,0.598,0.874,0.562,1.068,0.720,0.364,0.626,0.590,�k��,8.1,��
2021/04/30,03:40,0.598,0.876,0.561,1.067,0.721,0.363,0.627,0.590,���k��,6.5,��
2021/04/30,03:50,0.599,0.876,0.562,1.073,0.721,0.363,0.628,0.593,���k��,9.1,��
2021/04/30,04:00,0.599,0.876,0.562,1.072,0.722,0.364,0.629,0.594,�k��,8.2,��
2021/04/30,04:10,0.599,0.878,0.562,1.074,0.726,0.362,0.629,0.593,���k��,6.0,��
2021/04/30,04:20,0.599,0.879,0.562,1.075,0.723,0.364,0.629,0.591,���k��,7.5,��
2021/04/30,04:30,0.599,0.878,0.561,1.076,0.727,0.365,0.630,0.594,��,8.1,��
2021/04/30,04:40,0.600,0.879,0.562,1.078,0.728,0.365,0.630,0.595,���k��,8.9,��
2021/04/30,04:50,0.599,0.880,0.563,1.080,0.730,0.364,0.630,0.596,�k��,7.9,��
2021/04/30,05:00,0.601,0.882,0.563,1.079,0.729,0.363,0.630,0.596,���k��,5.0,��
2021/04/30,05:10,0.602,0.880,0.562,1.081,0.731,0.363,0.631,0.595,�k��,4.2,��
2021/04/30,05:20,0.601,0.880,0.561,1.082,0.731,0.364,0.631,0.595,��,5.8,��
2021/04/30,05:30,0.603,0.879,0.565,1.083,0.731,0.365,0.630,0.596,��,6.6,��
2021/04/30,05:40,0.600,0.881,0.564,1.084,0.733,0.364,0.632,0.597,���k��,7.7,��
2021/04/30,05:50,0.602,0.882,0.563,1.084,0.733,0.365,0.634,0.596,���k��,4.6,��
2021/04/30,06:00,0.605,0.883,0.564,1.086,0.735,0.364,0.633,0.596,���k��,5.9,��
2021/04/30,06:10,0.604,0.882,0.563,1.083,0.735,0.364,0.633,0.596,���k��,6.5,��
2021/04/30,06:20,0.604,0.884,0.565,1.085,0.736,0.365,0.634,0.596,���k��,8.2,��
2021/04/30,06:30,0.604,0.884,0.564,1.088,0.736,0.365,0.635,0.597,���k��,7.7,��
2021/04/30,06:40,0.603,0.883,0.565,1.087,0.739,0.364,0.633,0.597,���k��,7.2,��
2021/04/30,06:50,0.606,0.883,0.566,1.088,0.738,0.364,0.634,0.598,���k��,6.7,��
2021/04/30,07:00,0.603,0.885,0.565,1.089,0.739,0.363,0.634,0.598,�k��,6.7,��
2021/04/30,07:10,0.607,0.884,0.567,1.089,0.739,0.363,0.633,0.597,���k��,8.4,��
2021/04/30,07:20,0.607,0.885,0.568,1.090,0.740,0.364,0.634,0.599,���k��,7.5,��
2021/04/30,07:30,0.603,0.884,0.567,1.091,0.740,0.364,0.634,0.598,���k��,8.7,��
2021/04/30,07:40,0.605,0.883,0.568,1.092,0.742,0.364,0.634,0.597,���k��,7.8,��
2021/04/30,07:50,0.607,0.886,0.567,1.090,0.744,0.363,0.633,0.598,��,7.7,��
2021/04/30,08:00,0.607,0.886,0.565,1.092,0.743,0.363,0.637,0.597,��,7.5,��
2021/04/30,08:10,0.604,0.888,0.568,1.093,0.743,0.363,0.635,0.597,��,6.5,��
2021/04/30,08:20,0.604,0.885,0.567,1.094,0.742,0.364,0.635,0.595,��,8.4,��
2021/04/30,08:30,0.607,0.888,0.568,1.093,0.744,0.364,0.635,0.597,��,8.0,��
2021/04/30,08:40,0.608,0.888,0.568,1.096,0.746,0.365,0.636,0.596,��,8.6,��
2021/04/30,08:50,0.608,0.890,0.567,1.094,0.747,0.364,0.636,0.597,���쐼,11.1,��
2021/04/30,09:00,0.611,0.890,0.568,1.095,0.747,0.365,0.637,0.596,��,10.2,��
2021/04/30,09:10,0.609,0.891,0.571,1.096,0.747,0.364,0.637,0.597,��,12.2,��
2021/04/30,09:20,0.610,0.892,0.570,1.099,0.749,0.365,0.636,0.597,��,8.4,��
2021/04/30,09:30,0.610,0.891,0.568,1.097,0.750,0.365,0.638,0.596,��,9.0,��
2021/04/30,09:40,0.611,0.891,0.568,1.098,0.749,0.366,0.637,0.597,��,9.1,��
2021/04/30,09:50,0.610,0.893,0.569,1.098,0.747,0.366,0.639,0.597,���k��,10.5,��
2021/04/30,10:00,0.610,0.893,0.568,1.100,0.750,0.365,0.636,0.598,��,9.4,��
2021/04/30,10:10,0.612,0.895,0.569,1.097,0.750,0.365,0.638,0.597,��,9.4,��
2021/04/30,10:20,0.611,0.896,0.570,1.099,0.752,0.366,0.637,0.597,��,6.1,��
2021/04/30,10:30,0.611,0.896,0.572,1.100,0.751,0.365,0.638,0.598,���쐼,8.3,��
2021/04/30,10:40,0.613,0.897,0.571,1.100,0.752,0.367,0.640,0.596,��,11.1,��
2021/04/30,10:50,0.613,0.895,0.570,1.102,0.752,0.367,0.638,0.599,��,7.8,��
2021/04/30,11:00,0.615,0.896,0.570,1.103,0.753,0.367,0.639,0.597,��,8.9,��
2021/04/30,11:10,0.615,0.899,0.572,1.100,0.754,0.367,0.639,0.599,��,9.2,��
2021/04/30,11:20,0.615,0.899,0.571,1.097,0.754,0.366,0.638,0.598,��,9.4,��
2021/04/30,11:30,0.614,0.900,0.572,1.100,0.753,0.366,0.641,0.599,���k��,9.9,��
2021/04/30,11:40,0.615,0.901,0.573,1.102,0.756,0.366,0.639,0.600,��,9.7,��
2021/04/30,11:50,0.614,0.898,0.571,1.103,0.754,0.367,0.639,0.599,��,7.9,��
2021/04/30,12:00,0.615,0.899,0.571,1.099,0.757,0.368,0.640,0.599,��,8.8,��
2021/04/30,12:10,0.616,0.901,0.571,1.102,0.758,0.368,0.639,0.600,��,9.5,��
2021/04/30,12:20,0.614,0.900,0.573,1.103,0.761,0.368,0.642,0.600,���쐼,8.9,��
2021/04/30,12:30,0.615,0.903,0.574,1.102,0.760,0.367,0.640,0.601,���쐼,8.1,��
2021/04/30,12:40,0.616,0.902,0.572,1.101,0.761,0.367,0.640,0.599,��,9.9,��
2021/04/30,12:50,0.618,0.904,0.574,1.104,0.761,0.368,0.641,0.601,��,7.6,��
2021/04/30,13:00,0.615,0.901,0.575,1.107,0.762,0.368,0.640,0.600,��,7.6,��
2021/04/30,13:10,0.614,0.905,0.574,1.106,0.761,0.369,0.641,0.602,��,5.9,��
2021/04/30,13:20,0.617,0.904,0.574,1.106,0.763,0.368,0.641,0.600,���k��,5.5,��
2021/04/30,13:30,0.617,0.904,0.574,1.107,0.763,0.369,0.642,0.600,���k��,6.3,��
2021/04/30,13:40,0.617,0.904,0.575,1.106,0.763,0.369,0.643,0.602,���k��,6.3,��
2021/04/30,13:50,0.617,0.905,0.576,1.110,0.766,0.369,0.641,0.601,���k��,7.3,��
2021/04/30,14:00,0.618,0.904,0.578,1.112,0.762,0.369,0.644,0.601,���k��,5.5,��
2021/04/30,14:10,0.617,0.906,0.575,1.111,0.765,0.370,0.640,0.601,���쐼,9.1,��
2021/04/30,14:20,0.617,0.906,0.575,1.110,0.765,0.370,0.644,0.601,���쐼,6.9,��
2021/04/30,14:30,0.619,0.906,0.575,1.109,0.762,0.370,0.641,0.602,�쐼,4.1,��
2021/04/30,14:40,0.618,0.908,0.575,1.109,0.763,0.369,0.643,0.601,��쓌,4.5,��
2021/04/30,14:50,0.617,0.906,0.578,1.109,0.766,0.369,0.642,0.603,��쓌,7.3,��
2021/04/30,15:00,0.619,0.905,0.576,1.108,0.766,0.370,0.641,0.602,��쓌,9.6,��
2021/04/30,15:10,0.621,0.907,0.576,1.108,0.766,0.369,0.641,0.602,��쓌,7.2,��
2021/04/30,15:20,0.617,0.910,0.576,1.107,0.765,0.369,0.642,0.602,��쓌,9.5,��
2021/04/30,15:30,0.618,0.907,0.576,1.111,0.768,0.369,0.642,0.602,��쓌,8.6,��
2021/04/30,15:40,0.618,0.907,0.576,1.110,0.768,0.370,0.642,0.601,��쓌,8.8,��
2021/04/30,15:50,0.617,0.908,0.576,1.111,0.767,0.367,0.641,0.601,��,8.5,��
2021/04/30,16:00,0.617,0.907,0.576,1.111,0.767,0.368,0.642,0.601,��,9.1,��
2021/04/30,16:10,0.618,0.907,0.576,1.111,0.768,0.368,0.642,0.601,��쓌,7.7,��
2021/04/30,16:20,0.619,0.908,0.575,1.112,0.767,0.368,0.642,0.600,��,9.2,��
2021/04/30,16:30,0.619,0.908,0.576,1.112,0.768,0.369,0.642,0.600,��,7.6,��
2021/04/30,16:40,0.617,0.908,0.576,1.111,0.767,0.369,0.643,0.602,��,8.4,��
2021/04/30,16:50,0.617,0.907,0.574,1.112,0.768,0.369,0.642,0.601,��,10.0,��
2021/04/30,17:00,0.617,0.910,0.576,1.114,0.769,0.370,0.643,0.602,��,8.5,��
2021/04/30,17:10,0.618,0.909,0.576,1.115,0.769,0.369,0.643,0.601,��,8.4,��
2021/04/30,17:20,0.618,0.910,0.578,1.114,0.768,0.369,0.643,0.602,��,8.0,��
2021/04/30,17:30,0.617,0.909,0.577,1.114,0.768,0.369,0.642,0.603,��,8.6,��
2021/04/30,17:40,0.619,0.912,0.577,1.113,0.769,0.370,0.642,0.603,��,7.5,��
2021/04/30,17:50,0.618,0.913,0.574,1.112,0.769,0.370,0.644,0.603,��,7.7,��
2021/04/30,18:00,0.616,0.913,0.577,1.116,0.768,0.369,0.641,0.605,��쐼,8.5,��
2021/04/30,18:10,0.619,0.912,0.578,1.113,0.770,0.370,0.643,0.603,��쐼,7.4,��
2021/04/30,18:20,0.617,0.913,0.579,1.114,0.769,0.368,0.642,0.605,��쐼,6.8,�L
2021/04/30,18:30,0.618,0.913,0.578,1.114,0.770,0.370,0.644,0.604,���쐼,5.8,�L
2021/04/30,18:40,0.620,0.913,0.580,1.113,0.770,0.370,0.642,0.604,���k��,6.4,�L
2021/04/30,18:50,0.619,0.912,0.578,1.114,0.768,0.371,0.643,0.602,��,8.1,�L
2021/04/30,19:00,0.618,0.910,0.577,1.115,0.770,0.371,0.640,0.603,��,7.7,�L
2021/04/30,19:10,0.619,0.908,0.577,1.113,0.767,0.372,0.641,0.601,��,8.2,�L
2021/04/30,19:20,0.618,0.905,0.578,1.113,0.769,0.372,0.640,0.601,��,7.8,�L
2021/04/30,19:30,0.619,0.906,0.578,1.116,0.767,0.372,0.639,0.601,��,6.9,�L
2021/04/30,19:40,0.618,0.906,0.577,1.115,0.768,0.371,0.639,0.600,���k��,7.4,�L
2021/04/30,19:50,0.618,0.903,0.577,1.113,0.769,0.371,0.640,0.601,���k��,7.3,�L
2021/04/30,20:00,0.616,0.903,0.577,1.113,0.769,0.371,0.641,0.601,���k��,5.9,�L
2021/04/30,20:10,0.617,0.904,0.578,1.115,0.768,0.371,0.639,0.600,��,5.1,�L
2021/04/30,20:20,0.616,0.905,0.574,1.113,0.772,0.369,0.641,0.603,���k��,4.7,�L
2021/04/30,20:30,0.617,0.906,0.575,1.112,0.769,0.371,0.640,0.602,���k��,3.1,��
2021/04/30,20:40,0.612,0.906,0.574,1.111,0.769,0.370,0.641,0.603,�k��,2.6,��
2021/04/30,20:50,0.614,0.902,0.575,1.112,0.770,0.370,0.641,0.601,�k��,3.2,��
2021/04/30,21:00,0.614,0.902,0.573,1.112,0.770,0.368,0.640,0.603,�k��,6.3,��
2021/04/30,21:10,0.613,0.903,0.574,1.109,0.767,0.370,0.641,0.604,�k��,3.9,�L
2021/04/30,21:20,0.613,0.901,0.575,1.112,0.768,0.370,0.640,0.603,�k��,4.2,�L
2021/04/30,21:30,0.613,0.903,0.574,1.111,0.769,0.369,0.641,0.601,�k�k��,2.8,�L
2021/04/30,21:40,0.613,0.903,0.575,1.113,0.768,0.369,0.640,0.603,�k��,3.2,��
2021/04/30,21:50,0.613,0.904,0.575,1.112,0.769,0.368,0.640,0.602,�k�k��,2.9,�L
2021/04/30,22:00,0.613,0.902,0.576,1.109,0.770,0.368,0.640,0.603,�k,0.8,��
2021/04/30,22:10,0.615,0.902,0.575,1.111,0.770,0.369,0.640,0.603,�k�k��,3.7,��
2021/04/30,22:20,0.614,0.903,0.574,1.110,0.770,0.368,0.641,0.602,�k��,3.0,��
2021/04/30,22:30,0.614,0.903,0.573,1.108,0.770,0.368,0.642,0.603,�k��,3.5,��
2021/04/30,22:40,0.615,0.904,0.574,1.109,0.769,0.369,0.642,0.602,�k��,2.5,��
2021/04/30,22:50,0.614,0.902,0.573,1.110,0.768,0.369,0.642,0.604,�k�k��,2.6,��
2021/04/30,23:00,0.614,0.903,0.575,1.110,0.768,0.369,0.639,0.601,�k,3.0,��
2021/04/30,23:10,0.614,0.902,0.573,1.110,0.770,0.368,0.639,0.602,�k,4.6,��
2021/04/30,23:20,0.612,0.904,0.573,1.111,0.768,0.368,0.642,0.602,�k��,6.0,��
2021/04/30,23:30,0.614,0.902,0.573,1.110,0.770,0.368,0.641,0.602,�k,1.7,��
2021/04/30,23:40,0.614,0.902,0.573,1.109,0.769,0.370,0.641,0.602,�k,2.3,��
2021/04/30,23:50,0.614,0.902,0.572,1.109,0.770,0.368,0.641,0.602,�k��,3.2,��
